MDA191 RCSS-RCQC

Flight info

Callsign MDA191
Flight time 0h 37m
Altitude 28000
Route HLG1C HLG A1 SWORD DCT MASON DCT SEGMA DCT ARBOK
Aircraft E190/M-SDE3GILORVW/S

Departure

Time 2026-04-21 06:19
Airport Taipei Songshan International Airport (RCSS)

Arrival

Time 2026-04-21 06:56
Airport Penghu Magong Airport (RCQC)
Time Latitude Longitude Altitude Speed Heading
2026-04-21 06:17 25.06935 121.53975 27 ft 3 kts 337°
2026-04-21 06:17 25.06952 121.53977 27 ft 1 kts
2026-04-21 06:17 25.06965 121.53980 27 ft 6 kts 11°
2026-04-21 06:18 25.07015 121.54035 28 ft 15 kts 77°
2026-04-21 06:18 25.06996 121.54197 27 ft 27 kts 94°
2026-04-21 06:18 25.06984 121.54454 26 ft 44 kts 91°
2026-04-21 06:18 25.06964 121.55151 27 ft 136 kts 92°
2026-04-21 06:19 25.06917 121.56475 314 ft 198 kts 92°
2026-04-21 06:19 25.06831 121.58038 987 ft 219 kts 101°
2026-04-21 06:19 25.06120 121.59632 1408 ft 241 kts 126°
2026-04-21 06:19 25.05079 121.61131 1864 ft 248 kts 136°
2026-04-21 06:20 25.03629 121.62074 2268 ft 241 kts 169°
2026-04-21 06:20 25.01975 121.62030 2688 ft 240 kts 200°
2026-04-21 06:20 25.00542 121.61010 3156 ft 261 kts 231°
2026-04-21 06:20 24.99744 121.59136 3710 ft 285 kts 259°
2026-04-21 06:21 24.99391 121.56903 4241 ft 304 kts 259°
2026-04-21 06:21 24.98962 121.54629 4729 ft 307 kts 257°
2026-04-21 06:21 24.98395 121.52345 5235 ft 309 kts 254°
2026-04-21 06:21 24.97738 121.50078 5727 ft 311 kts 252°
2026-04-21 06:22 24.97019 121.47810 6209 ft 315 kts 251°
2026-04-21 06:22 24.96185 121.45566 6659 ft 317 kts 245°
2026-04-21 06:22 24.95183 121.43385 7121 ft 319 kts 244°
2026-04-21 06:22 24.94197 121.41175 7556 ft 322 kts 245°
2026-04-21 06:23 24.93181 121.38968 8057 ft 323 kts 244°
2026-04-21 06:23 24.92131 121.36757 8559 ft 326 kts 243°
2026-04-21 06:23 24.91068 121.34571 9013 ft 330 kts 242°
2026-04-21 06:23 24.89873 121.32402 9450 ft 332 kts 240°
2026-04-21 06:24 24.88661 121.30223 9936 ft 335 kts 239°
2026-04-21 06:24 24.87430 121.28037 10451 ft 337 kts 239°
2026-04-21 06:24 24.86180 121.25843 10931 ft 340 kts 239°
2026-04-21 06:24 24.84920 121.23624 11440 ft 343 kts 239°
2026-04-21 06:25 24.83651 121.21389 11843 ft 347 kts 239°
2026-04-21 06:25 24.82388 121.19163 11986 ft 347 kts 239°
2026-04-21 06:25 24.81110 121.16916 12053 ft 347 kts 239°
2026-04-21 06:25 24.79850 121.14653 12050 ft 346 kts 240°
2026-04-21 06:26 24.78574 121.12407 12061 ft 346 kts 239°
2026-04-21 06:26 24.77299 121.10159 12062 ft 346 kts 239°
2026-04-21 06:26 24.76025 121.07915 12075 ft 346 kts 239°
2026-04-21 06:26 24.74740 121.05669 12064 ft 347 kts 239°
2026-04-21 06:27 24.73471 121.03418 12072 ft 346 kts 239°
2026-04-21 06:27 24.72193 121.01174 12064 ft 346 kts 239°
2026-04-21 06:27 24.70941 120.98958 12057 ft 346 kts 239°
2026-04-21 06:27 24.69659 120.96715 12040 ft 346 kts 239°
2026-04-21 06:28 24.68385 120.94470 12046 ft 346 kts 239°
2026-04-21 06:28 24.67112 120.92226 12046 ft 346 kts 239°
2026-04-21 06:28 24.65682 120.90102 12042 ft 347 kts 229°
2026-04-21 06:28 24.63985 120.88205 12048 ft 349 kts 226°
2026-04-21 06:29 24.62275 120.86325 12023 ft 348 kts 229°
2026-04-21 06:29 24.60645 120.84365 12040 ft 347 kts 229°
2026-04-21 06:29 24.59048 120.82421 12053 ft 347 kts 230°
2026-04-21 06:29 24.57432 120.80447 12033 ft 348 kts 229°
2026-04-21 06:30 24.55812 120.78479 12025 ft 347 kts 230°
2026-04-21 06:30 24.54196 120.76506 12035 ft 347 kts 229°
2026-04-21 06:30 24.52578 120.74534 12058 ft 347 kts 230°
2026-04-21 06:30 24.50965 120.72559 12044 ft 347 kts 230°
2026-04-21 06:31 24.49344 120.70590 12104 ft 348 kts 229°
2026-04-21 06:31 24.47729 120.68616 12097 ft 347 kts 230°
2026-04-21 06:31 24.46129 120.66673 12107 ft 348 kts 229°
2026-04-21 06:31 24.44509 120.64706 12080 ft 347 kts 230°
2026-04-21 06:32 24.42881 120.62749 12061 ft 347 kts 229°
2026-04-21 06:32 24.41273 120.60773 12045 ft 347 kts 230°
2026-04-21 06:32 24.39656 120.58806 12050 ft 347 kts 229°
2026-04-21 06:32 24.38038 120.56842 12031 ft 347 kts 229°
2026-04-21 06:33 24.36418 120.54883 12032 ft 347 kts 229°
2026-04-21 06:33 24.34804 120.52920 12037 ft 347 kts 230°
2026-04-21 06:33 24.33184 120.50955 12041 ft 347 kts 229°
2026-04-21 06:33 24.31586 120.49019 12033 ft 347 kts 229°
2026-04-21 06:34 24.29964 120.47058 12025 ft 347 kts 229°
2026-04-21 06:34 24.28347 120.45098 12037 ft 347 kts 229°
2026-04-21 06:34 24.26726 120.43139 12039 ft 347 kts 229°
2026-04-21 06:34 24.25106 120.41177 12031 ft 347 kts 229°
2026-04-21 06:35 24.23487 120.39218 12028 ft 347 kts 229°
2026-04-21 06:35 24.21866 120.37260 12037 ft 347 kts 229°
2026-04-21 06:35 24.20246 120.35300 12046 ft 347 kts 229°
2026-04-21 06:35 24.18623 120.33342 12031 ft 347 kts 229°
2026-04-21 06:36 24.17003 120.31383 12028 ft 347 kts 229°
2026-04-21 06:36 24.15404 120.29453 12037 ft 347 kts 229°
2026-04-21 06:36 24.13780 120.27496 12041 ft 347 kts 229°
2026-04-21 06:36 24.12159 120.25541 12031 ft 347 kts 229°
2026-04-21 06:37 24.10536 120.23584 12026 ft 347 kts 229°
2026-04-21 06:37 24.08913 120.21631 12038 ft 347 kts 229°
2026-04-21 06:37 24.07290 120.19673 12037 ft 347 kts 229°
2026-04-21 06:37 24.05668 120.17721 12033 ft 347 kts 229°
2026-04-21 06:38 24.04045 120.15765 12026 ft 347 kts 229°
2026-04-21 06:38 24.02420 120.13814 12039 ft 347 kts 229°
2026-04-21 06:38 24.00797 120.11859 12047 ft 347 kts 229°
2026-04-21 06:38 23.99194 120.09934 12032 ft 347 kts 229°
2026-04-21 06:39 23.97569 120.07982 12031 ft 347 kts 229°
2026-04-21 06:39 23.95946 120.06031 12033 ft 347 kts 229°
2026-04-21 06:39 23.94322 120.04080 12040 ft 347 kts 229°
2026-04-21 06:39 23.92695 120.02130 12035 ft 347 kts 229°
2026-04-21 06:40 23.91071 120.00179 12031 ft 347 kts 229°
2026-04-21 06:40 23.89445 119.98231 12035 ft 347 kts 229°
2026-04-21 06:40 23.87819 119.96282 12039 ft 347 kts 229°
2026-04-21 06:40 23.86214 119.94360 12028 ft 347 kts 229°
2026-04-21 06:41 23.84590 119.92412 12031 ft 347 kts 229°
2026-04-21 06:41 23.82964 119.90466 12038 ft 347 kts 229°
2026-04-21 06:41 23.81334 119.88518 12043 ft 347 kts 229°
2026-04-21 06:41 23.79708 119.86572 12028 ft 347 kts 229°
2026-04-21 06:42 23.78076 119.84619 11567 ft 347 kts 229°
2026-04-21 06:42 23.76471 119.82701 10955 ft 337 kts 229°
2026-04-21 06:42 23.74706 119.81070 10327 ft 332 kts 211°
2026-04-21 06:42 23.72541 119.80360 9711 ft 331 kts 187°
2026-04-21 06:43 23.70276 119.80706 9095 ft 332 kts 162°
2026-04-21 06:43 23.68350 119.82058 8495 ft 332 kts 136°
2026-04-21 06:43 23.66952 119.84036 7906 ft 327 kts 130°
2026-04-21 06:43 23.65254 119.85612 7289 ft 318 kts 154°
2026-04-21 06:44 23.63239 119.86537 6701 ft 313 kts 163°
2026-04-21 06:44 23.61178 119.87247 6102 ft 308 kts 171°
2026-04-21 06:44 23.59075 119.87418 5577 ft 298 kts 185°
2026-04-21 06:44 23.57081 119.87202 5229 ft 287 kts 192°
2026-04-21 06:45 23.55158 119.86762 4869 ft 278 kts 197°
2026-04-21 06:45 23.53351 119.86124 4521 ft 269 kts 204°
2026-04-21 06:45 23.51612 119.85420 4185 ft 264 kts 203°
2026-04-21 06:45 23.49946 119.84623 3839 ft 259 kts 208°
2026-04-21 06:46 23.48339 119.83765 3515 ft 256 kts 210°
2026-04-21 06:46 23.46844 119.82762 3178 ft 250 kts 219°
2026-04-21 06:46 23.45496 119.81577 2847 ft 247 kts 225°
2026-04-21 06:46 23.44323 119.80234 2509 ft 243 kts 230°
2026-04-21 06:47 23.43225 119.78876 2197 ft 241 kts 231°
2026-04-21 06:47 23.42185 119.77453 1888 ft 238 kts 235°
2026-04-21 06:47 23.41253 119.75988 1794 ft 231 kts 240°
2026-04-21 06:47 23.40520 119.74479 1733 ft 219 kts 245°
2026-04-21 06:48 23.39877 119.73036 1733 ft 203 kts 246°
2026-04-21 06:48 23.39340 119.71711 1766 ft 181 kts 250°
2026-04-21 06:48 23.38942 119.70459 1755 ft 171 kts 254°
2026-04-21 06:48 23.38684 119.69272 1721 ft 153 kts 260°
2026-04-21 06:49 23.38494 119.68147 1711 ft 152 kts 261°
2026-04-21 06:49 23.38321 119.67021 1722 ft 154 kts 261°
2026-04-21 06:49 23.38148 119.65879 1730 ft 149 kts 261°
2026-04-21 06:49 23.37995 119.64795 1724 ft 142 kts 264°
2026-04-21 06:50 23.37956 119.63719 1724 ft 143 kts 271°
2026-04-21 06:50 23.37987 119.62635 1730 ft 143 kts 272°
2026-04-21 06:50 23.38021 119.61549 1741 ft 144 kts 271°
2026-04-21 06:50 23.38104 119.60471 1729 ft 143 kts 288°
2026-04-21 06:51 23.38800 119.59792 1710 ft 141 kts 345°
2026-04-21 06:51 23.39783 119.59660 1738 ft 143 kts 347°
2026-04-21 06:51 23.40747 119.59471 1748 ft 143 kts 345°
2026-04-21 06:51 23.41720 119.59261 1740 ft 142 kts 344°
2026-04-21 06:52 23.42685 119.59057 1751 ft 139 kts 344°
2026-04-21 06:52 23.43604 119.58859 1767 ft 133 kts 343°
2026-04-21 06:52 23.44509 119.58670 1759 ft 133 kts 346°
2026-04-21 06:52 23.45443 119.58757 1734 ft 138 kts 11°
2026-04-21 06:53 23.46358 119.59088 1733 ft 138 kts 12°
2026-04-21 06:53 23.47268 119.59380 1735 ft 138 kts 12°
2026-04-21 06:53 23.48186 119.59716 1679 ft 141 kts 14°
2026-04-21 06:53 23.49109 119.60046 1480 ft 139 kts 13°
2026-04-21 06:54 23.50023 119.60370 1298 ft 138 kts 14°
2026-04-21 06:54 23.50931 119.60699 1110 ft 137 kts 14°
2026-04-21 06:54 23.51834 119.61022 936 ft 137 kts 13°
2026-04-21 06:54 23.52736 119.61342 754 ft 136 kts 14°
2026-04-21 06:55 23.53635 119.61669 574 ft 136 kts 14°
2026-04-21 06:55 23.54535 119.61989 375 ft 136 kts 13°
2026-04-21 06:55 23.55408 119.62306 225 ft 132 kts 15°
2026-04-21 06:55 23.56228 119.62592 104 ft 110 kts 17°
2026-04-21 06:56 23.56714 119.62770 99 ft 54 kts 19°
2026-04-21 06:56 23.57062 119.62895 90 ft 52 kts 19°
2026-04-21 06:56 23.57304 119.63008 85 ft 12 kts 92°
2026-04-21 06:56 23.57250 119.63119 87 ft 21 kts 109°
2026-04-21 06:57 23.57156 119.63175 89 ft 21 kts 197°
2026-04-21 06:57 23.56988 119.63116 96 ft 30 kts 199°
2026-04-21 06:57 23.56769 119.63038 97 ft 37 kts 196°
2026-04-21 06:57 23.56550 119.62957 98 ft 34 kts 200°
2026-04-21 06:58 23.56369 119.62897 98 ft 17 kts 197°
2026-04-21 06:58 23.56310 119.62877 99 ft 14 kts 198°
2026-04-21 06:58 23.56229 119.62849 100 ft 14 kts 198°
2026-04-21 06:58 23.56182 119.62836 99 ft 3 kts 178°
2026-04-21 06:59 23.56163 119.62867 97 ft 8 kts 114°
2026-04-21 06:59 23.56154 119.62892 97 ft 6 kts 106°
2026-04-21 06:59 23.56151 119.62904 97 ft 3 kts 108°
2026-04-21 06:59 23.56150 119.62906 97 ft 0 kts 108°